Find Starlink 31231

NORAD ID: 59034 Int'l Des: 2024-038 Owner: SPXS Country: US Constellation: starlink operational
LEOCIRCULAR

現在のビュー

3D地球を読み込み中...

About Starlink 31231

Starlink 31231 (NORAD 59034) is a starlink constellation satellite (v2 mini) launched Feb 25, 2024 by SPXS of US. It operates in LEO, CIRCULAR orbit with a mass of 730.00 kg.

次回通過

Passes for default location (London). Set your location on the main map for personalized predictions.

高度履歴

Loading altitude history...

軌道要素

1 59034U 24038M 26265.27885511 -.00000801 00000-0 -19604-4 0 9991
2 59034 43.0023 353.3676 0000890 293.0053 67.0705 15.27576175144759
Epoch: Sep 22, 2026 • Age: 11 hours

現在のステータス

高度 489.1 km
遠地点 / 近地点 N/A
速度 7.62 km/s
衛星直下点 -26.23°S, 55°E
打ち上げ日 Feb 25, 2024
運用期間 2.5 years
タイプ internet

技術仕様

分類 Payload
質量 730.00 kg
乾燥質量 700.00 kg
長さ 0.30 m
スパン 29.00 m
形状 ? Box + pan
製造者 SPXS
バスタイプ Starlink V2M
フェーズステータス In Orbit
所有者/国 SPXS/US

Most Searched